{"data":{"norad_id":55636,"epoch":"2026-05-25T00:31:10.077888Z","epoch_age_seconds":73157,"freshness":"FRESH","line1":"1 55636U 23021J   26145.02164442 -.00000052  00000+0  34163-5 0  9993","line2":"2 55636  70.0004  11.9300 0002696 269.0043  91.0807 14.98329296179734","mean_motion":14.98329296,"eccentricity":0.0002696,"inclination_deg":70.0004,"raan_deg":11.93,"arg_perigee_deg":269.0043,"mean_anomaly_deg":91.0807,"bstar":3.4163e-6,"rev_number":17973,"period_min":96.107044282207,"perigee_km":570.18429541686,"apogee_km":573.93184059753,"semimajor_km":6950.1950680072,"source":"CELESTRAK","updated_at":"2026-05-25T13:38:17.848386Z"}}